Minden, LA

11:52 PM CST on February 24, 2017 (GMT -0600)
Minden

Weather History for KMNE - October, 2012

Change the Weather History Date:

Sunday, October 7, 2012

  Actual Average (KBAD) Record (KBAD)
Temperature  
Mean Temperature 54 °F -  
Max Temperature 61 °F 75 °F 91 °F (2007)
Min Temperature 46 °F 55 °F 45 °F (2010)
Degree Days  
Heating Degree Days 12    
Growing Degree Days 4 (Base 50)    
Moisture  
Dew Point 42 °F    
Average Humidity 69    
Maximum Humidity 85    
Minimum Humidity 41    
Precipitation  
Precipitation 0.00 in - - ()
Sea Level Pressure  
Sea Level Pressure 30.22 in    
Wind  
Wind Speed 5 mph ()    
Max Wind Speed 10 mph    
Max Gust Speed 17 mph    
Visibility 10.0 miles    
Events Rain    
Averages and records for this station are not official NWS values.
T = Trace of Precipitation, MM = Missing Value Source: Averaged Metar Reports

Daily Weather History Graph

Daily Weather History Graph

Search for Another Location

Airport or City:

Trip Planner

Search our weather history database for the weather conditions in past years. The results will help you decide how hot, cold, wet, or windy it might be!

Date:

Astronomy

Oct. 07, 2012 Rise Set
Actual Time 7:11 AM CDT 6:49 PM CDT
Civil Twilight 6:47 AM CDT 7:14 PM CDT
Nautical Twilight 6:18 AM CDT 7:42 PM CDT
Astronomical Twilight 5:50 AM CDT 8:11 PM CDT
Moon No Moon Rise 1:36 PM CDT (10/7)
Length of Visible Light 12h 26m
Length of Day
11h 37m
Waning Gibbous, 56% of the Moon is Illuminated
Oct 7
Waning Gibbous
Oct 8
Last Quarter
Oct 15
New
Oct 21
First Quarter
Oct 29
Full

Hourly Weather History & Observations

Time (CDT) Temp. Dew Point Humidity Pressure Visibility Wind Dir Wind Speed Gust Speed Precip Events Conditions
12:15 AM 48.6 °F 41.9 °F 78% 30.22 in 10.0 mi North 5.8 mph - N/A   Overcast
12:35 AM 48.6 °F 42.3 °F 79% 30.22 in 10.0 mi North 8.1 mph - N/A   Overcast
12:55 AM 48.4 °F 42.4 °F 80% 30.21 in 10.0 mi North 5.8 mph - N/A   Overcast
1:15 AM 48.2 °F 42.4 °F 80% 30.21 in 10.0 mi North 6.9 mph - N/A   Overcast
1:35 AM 48.2 °F 42.4 °F 80% 30.21 in 10.0 mi North 5.8 mph - N/A   Overcast
1:55 AM 48.2 °F 42.1 °F 79% 30.20 in 10.0 mi North 3.5 mph - N/A   Overcast
2:15 AM 48.2 °F 42.1 °F 79% 30.21 in 10.0 mi North 4.6 mph - N/A   Overcast
2:35 AM 48.0 °F 41.0 °F 77% 30.21 in 10.0 mi North 5.8 mph - N/A   Overcast
2:55 AM 48.2 °F 41.4 °F 77% 30.22 in 10.0 mi North 9.2 mph - N/A   Overcast
3:15 AM 47.7 °F 41.2 °F 78% 30.21 in 10.0 mi NNE 6.9 mph - N/A   Overcast
3:35 AM 47.5 °F 40.5 °F 77% 30.20 in 10.0 mi North 4.6 mph - N/A   Overcast
3:55 AM 47.5 °F 40.6 °F 77% 30.21 in 10.0 mi North 6.9 mph - N/A   Overcast
4:15 AM 47.5 °F 40.5 °F 77% 30.22 in 10.0 mi North 6.9 mph - N/A   Overcast
4:35 AM 47.3 °F 41.0 °F 79% 30.21 in 10.0 mi North 4.6 mph - N/A   Overcast
4:55 AM 47.1 °F 41.0 °F 79% 30.21 in 10.0 mi North 8.1 mph - N/A   Overcast
5:15 AM 46.9 °F 41.0 °F 80% 30.21 in 10.0 mi North 4.6 mph - N/A   Mostly Cloudy
5:35 AM 46.8 °F 40.5 °F 79% 30.22 in 10.0 mi North 5.8 mph - N/A   Scattered Clouds
5:55 AM 46.8 °F 40.1 °F 78% 30.23 in 10.0 mi North 5.8 mph - N/A   Scattered Clouds
6:15 AM 47.1 °F 40.1 °F 77% 30.23 in 10.0 mi North 4.6 mph - N/A   Mostly Cloudy
6:35 AM 46.9 °F 40.1 °F 77% 30.24 in 10.0 mi North 5.8 mph - N/A   Scattered Clouds
6:55 AM 46.9 °F 40.5 °F 78% 30.25 in 10.0 mi North 3.5 mph - N/A   Clear
7:15 AM 46.9 °F 40.5 °F 78% 30.26 in 10.0 mi North 3.5 mph - N/A   Clear
7:35 AM 46.9 °F 40.8 °F 79% 30.26 in 10.0 mi North 4.6 mph - N/A   Clear
7:55 AM 47.3 °F 41.2 °F 79% 30.26 in 10.0 mi North 4.6 mph - N/A   Clear
8:15 AM 47.3 °F 41.2 °F 79% 30.27 in 10.0 mi NNE 4.6 mph - N/A   Clear
8:35 AM 47.5 °F 41.4 °F 79% 30.27 in 10.0 mi NNE 4.6 mph - N/A   Scattered Clouds
8:55 AM 48.2 °F 41.7 °F 78% 30.27 in 10.0 mi North 5.8 mph - N/A   Mostly Cloudy
9:15 AM 49.1 °F 42.1 °F 77% 30.28 in 10.0 mi North 4.6 mph - N/A   Overcast
9:35 AM 49.5 °F 41.5 °F 74% 30.29 in 10.0 mi North 5.8 mph - N/A   Overcast
9:55 AM 50.4 °F 41.9 °F 73% 30.29 in 10.0 mi NE 4.6 mph - N/A   Overcast
10:15 AM 50.9 °F 41.5 °F 70% 30.30 in 10.0 mi North 9.2 mph 16.1 mph N/A   Overcast
10:35 AM 51.4 °F 41.5 °F 69% 30.29 in 10.0 mi North 4.6 mph - N/A   Overcast
10:55 AM 52.5 °F 41.5 °F 66% 30.27 in 10.0 mi NE 6.9 mph - N/A   Overcast
11:15 AM 54.9 °F 42.3 °F 63% 30.28 in 10.0 mi NNE 5.8 mph - N/A   Overcast
11:35 AM 53.8 °F 40.5 °F 61% 30.28 in 10.0 mi NE 5.8 mph - N/A   Mostly Cloudy
11:55 AM 55.6 °F 40.8 °F 58% 30.27 in 10.0 mi NE 4.6 mph - N/A   Scattered Clouds
12:15 PM 55.4 °F 40.8 °F 58% 30.26 in 10.0 mi NNE 8.1 mph - N/A   Mostly Cloudy
12:35 PM 56.3 °F 40.8 °F 56% 30.25 in 10.0 mi North 8.1 mph - N/A   Mostly Cloudy
12:55 PM 58.1 °F 40.5 °F 52% 30.23 in 10.0 mi NE 8.1 mph - N/A   Mostly Cloudy
1:15 PM 59.2 °F 40.6 °F 50% 30.23 in 10.0 mi North 5.8 mph 17.3 mph N/A   Overcast
1:35 PM 60.4 °F 41.2 °F 49% 30.21 in 10.0 mi ENE 4.6 mph - N/A   Scattered Clouds
1:55 PM 60.4 °F 39.9 °F 47% 30.20 in 10.0 mi North 8.1 mph - N/A   Scattered Clouds
2:15 PM 59.7 °F 40.1 °F 48% 30.19 in 10.0 mi NNE 4.6 mph - N/A   Scattered Clouds
2:35 PM 61.5 °F 39.7 °F 45% 30.18 in 10.0 mi NNE 6.9 mph - N/A   Scattered Clouds
2:55 PM 59.5 °F 38.7 °F 46% 30.18 in 10.0 mi North 8.1 mph - N/A   Mostly Cloudy
3:15 PM 60.1 °F 36.5 °F 41% 30.17 in 10.0 mi NNE 10.4 mph - N/A   Overcast
3:35 PM 59.7 °F 36.7 °F 42% 30.18 in 10.0 mi NNE 5.8 mph - N/A   Overcast
3:55 PM 59.5 °F 36.3 °F 42% 30.18 in 10.0 mi ENE 5.8 mph - N/A   Overcast
4:15 PM 58.6 °F 38.1 °F 46% 30.17 in 10.0 mi ENE 4.6 mph - N/A   Overcast
4:35 PM 58.1 °F 39.6 °F 50% 30.16 in 10.0 mi NE 4.6 mph - N/A   Overcast
4:55 PM 57.6 °F 40.6 °F 53% 30.17 in 10.0 mi Calm Calm - N/A   Overcast
5:15 PM 57.2 °F 41.4 °F 55% 30.17 in 10.0 mi Calm Calm - N/A   Overcast
5:35 PM 56.8 °F 42.6 °F 59% 30.16 in 10.0 mi Calm Calm - N/A   Overcast
5:55 PM 56.7 °F 43.3 °F 61% 30.17 in 10.0 mi Calm Calm - N/A   Light Drizzle
6:15 PM 55.6 °F 46.6 °F 72% 30.15 in 10.0 mi Calm Calm - N/A   Overcast
6:35 PM 55.8 °F 45.5 °F 68% 30.17 in 10.0 mi Calm Calm - N/A   Overcast
6:55 PM 55.2 °F 46.6 °F 73% 30.17 in 10.0 mi Calm Calm - N/A   Overcast
7:15 PM 54.9 °F 46.8 °F 74% 30.17 in 10.0 mi North 4.6 mph - N/A   Overcast
7:35 PM 54.9 °F 46.6 °F 74% 30.17 in 10.0 mi NNE 3.5 mph - N/A   Overcast
7:55 PM 54.7 °F 46.4 °F 74% 30.18 in 10.0 mi North 4.6 mph - N/A   Overcast
8:15 PM 54.5 °F 46.0 °F 73% 30.17 in 10.0 mi Calm Calm - N/A   Overcast
8:35 PM 54.5 °F 45.9 °F 73% 30.17 in 10.0 mi Calm Calm - N/A   Overcast
8:55 PM 54.5 °F 46.0 °F 73% 30.18 in 10.0 mi Calm Calm - N/A   Overcast
9:15 PM 54.5 °F 46.6 °F 75% 30.18 in 10.0 mi North 6.9 mph - N/A   Overcast
9:35 PM 53.6 °F 46.4 °F 77% 30.18 in 10.0 mi North 5.8 mph - N/A   Overcast
9:55 PM 53.6 °F 46.6 °F 77% 30.19 in 10.0 mi North 9.2 mph - N/A   Overcast
10:15 PM 52.9 °F 46.4 °F 79% 30.20 in 10.0 mi NNW 9.2 mph - N/A   Overcast
10:35 PM 52.2 °F 45.5 °F 78% 30.22 in 10.0 mi North 8.1 mph - N/A   Overcast
10:55 PM 51.8 °F 45.0 °F 77% 30.21 in 10.0 mi NNE 3.5 mph - N/A   Overcast
11:15 PM 51.4 °F 45.3 °F 80% 30.22 in 10.0 mi North 6.9 mph - N/A Rain Light Rain
11:35 PM 50.9 °F 45.9 °F 83% 30.21 in 10.0 mi North 4.6 mph - N/A   Overcast
11:55 PM 50.4 °F 45.9 °F 85% 30.20 in 10.0 mi North 3.5 mph - N/A   Overcast